| time (UTC) | temp C | wind direction | speed KPH | gust KPH | rain 1hr cm | rain 24hr cm | rain mn cm | humidity % | barometer mb |
| 20260903170005 | 31 | 188 | 59.5 | 0.0 | 0.00 | 0.00 | 0.00 | 47 | 1010.6 |
| 20260903165505 | 31 | 182 | 20.9 | 0.0 | 0.00 | 0.00 | 0.00 | 50 | 1010.6 |
| 20260903165004 | 31 | 106 | 14.5 | 0.0 | 0.00 | 0.00 | 0.00 | 50 | 1010.6 |
| 20260903164505 | 31 | 111 | 37.0 | 0.0 | 0.00 | 0.00 | 0.00 | 49 | 1011.0 |
| 20260903164212 | 32 | 145 | 20.9 | 0.0 | 0.00 | 0.00 | 0.00 | 49 | 1010.6 |
| 20260903163505 | 31 | 57 | 14.5 | 0.0 | 0.00 | 0.00 | 0.00 | 50 | 1010.6 |
| 20260903163005 | 31 | 51 | 20.9 | 0.0 | 0.00 | 0.00 | 0.00 | 51 | 1011.0 |
| 20260903162504 | 31 | 164 | 43.5 | 0.0 | 0.00 | 0.00 | 0.00 | 52 | 1010.6 |
| 20260903162005 | 31 | 214 | 14.5 | 0.0 | 0.00 | 0.00 | 0.00 | 51 | 1011.0 |
| 20260903161713 | 31 | 272 | 6.4 | 0.0 | 0.00 | 0.00 | 0.00 | 52 | 1010.6 |
| 20260903161005 | 31 | 59 | 14.5 | 0.0 | 0.00 | 0.00 | 0.00 | 54 | 1011.0 |
| 20260903160505 | 31 | 176 | 29.0 | 0.0 | 0.00 | 0.00 | 0.00 | 53 | 1011.0 |
| 20260903160005 | 30 | 154 | 20.9 | 0.0 | 0.00 | 0.00 | 0.00 | 56 | 1010.6 |
| 20260903155505 | 30 | 145 | 14.5 | 0.0 | 0.00 | 0.00 | 0.00 | 56 | 1010.6 |
| 20260903155005 | 30 | 93 | 20.9 | 0.0 | 0.00 | 0.00 | 0.00 | 58 | 1010.6 |
| 20260903154505 | 30 | 76 | 37.0 | 0.0 | 0.00 | 0.00 | 0.00 | 57 | 1010.6 |
| 20260903154004 | 30 | 148 | 20.9 | 0.0 | 0.00 | 0.00 | 0.00 | 58 | 1010.6 |
| 20260903153505 | 30 | 104 | 29.0 | 0.0 | 0.00 | 0.00 | 0.00 | 59 | 1010.6 |
| 20260903153005 | 30 | 66 | 20.9 | 0.0 | 0.00 | 0.00 | 0.00 | 59 | 1010.6 |
| 20260903152505 | 30 | 148 | 14.5 | 0.0 | 0.00 | 0.00 | 0.00 | 59 | 1010.6 |
| 20260903152005 | 30 | 118 | 14.5 | 0.0 | 0.00 | 0.00 | 0.00 | 61 | 1011.0 |
| 20260903151505 | 30 | 138 | 20.9 | 0.0 | 0.00 | 0.00 | 0.00 | 62 | 1011.0 |
| 20260903151213 | 29 | 260 | 20.9 | 0.0 | 0.00 | 0.00 | 0.00 | 62 | 1011.3 |
| 20260903150505 | 29 | 146 | 20.9 | 0.0 | 0.00 | 0.00 | 0.00 | 63 | 1011.3 |
| 20260903150005 | 28 | 85 | 20.9 | 0.0 | 0.00 | 0.00 | 0.00 | 64 | 1011.0 |
| 20260903145505 | 28 | 114 | 20.9 | 0.0 | 0.00 | 0.00 | 0.00 | 66 | 1011.0 |
| 20260903145005 | 28 | 213 | 20.9 | 0.0 | 0.00 | 0.00 | 0.00 | 66 | 1011.0 |
| 20260903144505 | 28 | 226 | 14.5 | 0.0 | 0.00 | 0.00 | 0.00 | 67 | 1011.3 |
| 20260903144005 | 28 | 60 | 20.9 | 0.0 | 0.00 | 0.00 | 0.00 | 68 | 1011.0 |
| 20260903143712 | 28 | 170 | 6.4 | 0.0 | 0.00 | 0.00 | 0.00 | 69 | 1011.0 |
| 20260903143005 | 28 | 97 | 20.9 | 0.0 | 0.00 | 0.00 | 0.00 | 71 | 1011.0 |
| 20260903142505 | 28 | 50 | 14.5 | 0.0 | 0.00 | 0.00 | 0.00 | 72 | 1011.0 |
| 20260903142005 | 28 | 121 | 14.5 | 0.0 | 0.00 | 0.00 | 0.00 | 72 | 1011.3 |
| 20260903141504 | 27 | 4 | 20.9 | 0.0 | 0.00 | 0.00 | 0.00 | 74 | 1011.3 |
| 20260903141005 | 27 | 176 | 20.9 | 0.0 | 0.00 | 0.00 | 0.00 | 75 | 1011.0 |
| 20260903140712 | 27 | 341 | 14.5 | 0.0 | 0.00 | 0.00 | 0.00 | 75 | 1011.3 |
| 20260903140005 | 27 | 65 | 29.0 | 0.0 | 0.00 | 0.00 | 0.00 | 75 | 1011.3 |
| 20260903135505 | 27 | 252 | 6.4 | 0.0 | 0.00 | 0.00 | 0.00 | 78 | 1011.3 |
| 20260903135005 | 27 | 104 | 0.0 | 0.0 | 0.00 | 0.00 | 0.00 | 78 | 1011.3 |
| 20260903134505 | 26 | 65 | 6.4 | 0.0 | 0.00 | 0.00 | 0.00 | 80 | 1011.3 |
| 20260903134005 | 26 | 132 | 6.4 | 0.0 | 0.00 | 0.00 | 0.00 | 81 | 1011.3 |
| 20260903133504 | 26 | 82 | 6.4 | 0.0 | 0.00 | 0.00 | 0.00 | 81 | 1011.3 |
| 20260903133005 | 26 | 136 | 14.5 | 0.0 | 0.00 | 0.00 | 0.00 | 81 | 1011.3 |
| 20260903132505 | 26 | 123 | 6.4 | 0.0 | 0.00 | 0.00 | 0.00 | 82 | 1011.0 |
| 20260903132005 | 26 | 67 | 6.4 | 0.0 | 0.00 | 0.00 | 0.00 | 83 | 1011.0 |
| 20260903131505 | 26 | 8 | 20.9 | 0.0 | 0.00 | 0.00 | 0.00 | 83 | 1011.0 |
| 20260903131005 | 26 | 96 | 6.4 | 0.0 | 0.00 | 0.00 | 0.00 | 83 | 1011.0 |
| 20260903130505 | 26 | 122 | 0.0 | 0.0 | 0.00 | 0.00 | 0.00 | 83 | 1011.0 |
| 20260903130005 | 25 | 189 | 6.4 | 0.0 | 0.00 | 0.00 | 0.00 | 84 | 1011.0 |
| 20260903125505 | 25 | 61 | 14.5 | 0.0 | 0.00 | 0.00 | 0.00 | 84 | 1010.6 |
| 20260903125005 | 25 | 61 | 20.9 | 0.0 | 0.00 | 0.00 | 0.00 | 84 | 1010.6 |
| 20260903124711 | 25 | 126 | 6.4 | 0.0 | 0.00 | 0.00 | 0.00 | 84 | 1011.0 |
| 20260903124005 | 25 | 178 | 6.4 | 0.0 | 0.00 | 0.00 | 0.00 | 84 | 1010.6 |
| 20260903123505 | 25 | 125 | 6.4 | 0.0 | 0.00 | 0.00 | 0.00 | 84 | 1010.6 |
| 20260903123005 | 25 | 108 | 6.4 | 0.0 | 0.00 | 0.00 | 0.00 | 84 | 1011.0 |
| 20260903122713 | 25 | 118 | 6.4 | 0.0 | 0.00 | 0.00 | 0.00 | 84 | 1010.6 |
| 20260903122005 | 25 | 123 | 6.4 | 0.0 | 0.00 | 0.00 | 0.00 | 84 | 1010.6 |
| 20260903121504 | 25 | 133 | 0.0 | 0.0 | 0.00 | 0.00 | 0.00 | 84 | 1010.6 |
| 20260903121005 | 25 | 63 | 6.4 | 0.0 | 0.00 | 0.00 | 0.00 | 84 | 1010.6 |
| 20260903120505 | 25 | 115 | 14.5 | 0.0 | 0.00 | 0.00 | 0.00 | 84 | 1010.6 |
| 20260903120005 | 25 | 109 | 20.9 | 0.0 | 0.00 | 0.00 | 0.00 | 84 | 1011.0 |
| 20260903115505 | 25 | 53 | 0.0 | 0.0 | 0.00 | 0.00 | 0.00 | 84 | 1010.6 |
| 20260903115005 | 25 | 100 | 0.0 | 0.0 | 0.00 | 0.00 | 0.00 | 84 | 1010.6 |
| 20260903114505 | 25 | 103 | 0.0 | 0.0 | 0.00 | 0.00 | 0.00 | 84 | 1010.6 |
| 20260903114005 | 25 | 152 | 6.4 | 0.0 | 0.00 | 0.00 | 0.00 | 83 | 1010.6 |
| 20260903113505 | 25 | 141 | 6.4 | 0.0 | 0.00 | 0.00 | 0.00 | 83 | 1010.6 |
| 20260903113005 | 26 | 140 | 0.0 | 0.0 | 0.00 | 0.00 | 0.00 | 83 | 1010.6 |
| 20260903112504 | 26 | 87 | 6.4 | 0.0 | 0.00 | 0.00 | 0.00 | 83 | 1011.0 |
| 20260903112005 | 26 | 152 | 14.5 | 0.0 | 0.00 | 0.00 | 0.00 | 83 | 1010.6 |
| 20260903111505 | 26 | 97 | 14.5 | 0.0 | 0.00 | 0.00 | 0.00 | 83 | 1010.6 |
| 20260903111005 | 26 | 90 | 14.5 | 0.0 | 0.00 | 0.00 | 0.00 | 83 | 1010.6 |
| 20260903110505 | 26 | 160 | 6.4 | 0.0 | 0.00 | 0.00 | 0.00 | 83 | 1010.3 |
| 20260903110005 | 26 | 131 | 14.5 | 0.0 | 0.00 | 0.00 | 0.00 | 83 | 1010.6 |
| 20260903105505 | 26 | 82 | 6.4 | 0.0 | 0.00 | 0.00 | 0.00 | 83 | 1010.6 |
| 20260903105005 | 26 | 145 | 6.4 | 0.0 | 0.00 | 0.00 | 0.00 | 83 | 1010.6 |
| 20260903104505 | 26 | 122 | 6.4 | 0.0 | 0.00 | 0.00 | 0.00 | 83 | 1010.6 |
| 20260903104005 | 26 | 142 | 6.4 | 0.0 | 0.00 | 0.00 | 0.00 | 83 | 1010.6 |
| 20260903103505 | 26 | 159 | 6.4 | 0.0 | 0.00 | 0.00 | 0.00 | 83 | 1010.6 |
| 20260903103005 | 26 | 121 | 0.0 | 0.0 | 0.00 | 0.00 | 0.00 | 83 | 1010.3 |
| 20260903102713 | 26 | 142 | 14.5 | 0.0 | 0.00 | 0.00 | 0.00 | 83 | 1010.6 |
| 20260903102005 | 26 | 168 | 0.0 | 0.0 | 0.00 | 0.00 | 0.00 | 83 | 1010.6 |
| 20260903101505 | 26 | 91 | 20.9 | 0.0 | 0.00 | 0.00 | 0.00 | 83 | 1010.6 |
| 20260903101005 | 26 | 173 | 29.0 | 0.0 | 0.00 | 0.00 | 0.00 | 83 | 1010.3 |
| 20260903100505 | 26 | 150 | 0.0 | 0.0 | 0.00 | 0.00 | 0.00 | 83 | 1010.6 |
| 20260903100005 | 26 | 159 | 14.5 | 0.0 | 0.00 | 0.00 | 0.00 | 83 | 1010.6 |
| 20260903095505 | 26 | 166 | 14.5 | 0.0 | 0.00 | 0.00 | 0.00 | 83 | 1010.6 |
| 20260903095213 | 26 | 180 | 14.5 | 0.0 | 0.00 | 0.00 | 0.00 | 83 | 1011.0 |
| 20260903094712 | 26 | 62 | 6.4 | 0.0 | 0.00 | 0.00 | 0.00 | 82 | 1010.6 |
| 20260903094005 | 26 | 156 | 20.9 | 0.0 | 0.00 | 0.00 | 0.00 | 82 | 1010.6 |
| 20260903093504 | 26 | 158 | 37.0 | 0.0 | 0.00 | 0.00 | 0.00 | 82 | 1010.6 |
| 20260903093005 | 26 | 186 | 37.0 | 0.0 | 0.00 | 0.00 | 0.00 | 82 | 1010.6 |
| 20260903092505 | 26 | 162 | 14.5 | 0.0 | 0.00 | 0.00 | 0.00 | 82 | 1011.0 |
| 20260903092005 | 26 | 141 | 6.4 | 0.0 | 0.00 | 0.00 | 0.00 | 82 | 1010.6 |
| 20260903091505 | 26 | 160 | 14.5 | 0.0 | 0.00 | 0.00 | 0.00 | 82 | 1010.6 |
| 20260903091213 | 26 | 159 | 37.0 | 0.0 | 0.00 | 0.00 | 0.00 | 82 | 1011.0 |
| 20260903090505 | 26 | 26 | 6.4 | 0.0 | 0.00 | 0.00 | 0.00 | 82 | 1011.0 |
| 20260903090005 | 26 | 160 | 29.0 | 0.0 | 0.00 | 0.00 | 0.00 | 81 | 1011.0 |
| 20260903085505 | 26 | 70 | 20.9 | 0.0 | 0.00 | 0.00 | 0.00 | 81 | 1011.0 |
| 20260903085005 | 26 | 127 | 29.0 | 0.0 | 0.00 | 0.00 | 0.00 | 81 | 1011.0 |
| 20260903084712 | 26 | 207 | 29.0 | 0.0 | 0.00 | 0.00 | 0.00 | 81 | 1011.0 |
| 20260903084005 | 26 | 62 | 20.9 | 0.0 | 0.00 | 0.00 | 0.00 | 81 | 1011.0 |
| 20260903083505 | 26 | 152 | 29.0 | 0.0 | 0.00 | 0.00 | 0.00 | 81 | 1011.0 |
| 20260903083005 | 26 | 163 | 29.0 | 0.0 | 0.00 | 0.00 | 0.00 | 81 | 1011.0 |
| 20260903082504 | 26 | 148 | 20.9 | 0.0 | 0.00 | 0.00 | 0.00 | 80 | 1011.3 |
| 20260903082213 | 26 | 153 | 14.5 | 0.0 | 0.00 | 0.00 | 0.00 | 80 | 1011.0 |
| 20260903081505 | 26 | 170 | 88.5 | 0.0 | 0.00 | 0.00 | 0.00 | 80 | 1011.0 |
| 20260903081004 | 26 | 152 | 29.0 | 0.0 | 0.00 | 0.00 | 0.00 | 80 | 1011.3 |
| 20260903080505 | 26 | 59 | 14.5 | 0.0 | 0.00 | 0.00 | 0.00 | 80 | 1011.3 |
| 20260903080005 | 26 | 150 | 14.5 | 0.0 | 0.00 | 0.00 | 0.00 | 80 | 1011.3 |
| 20260903075505 | 26 | 139 | 20.9 | 0.0 | 0.00 | 0.00 | 0.00 | 80 | 1011.3 |
| 20260903075005 | 26 | 147 | 20.9 | 0.0 | 0.00 | 0.00 | 0.00 | 79 | 1011.3 |
| 20260903074505 | 26 | 179 | 14.5 | 0.0 | 0.00 | 0.00 | 0.00 | 79 | 1011.3 |
| 20260903074005 | 26 | 167 | 6.4 | 0.0 | 0.00 | 0.00 | 0.00 | 79 | 1011.3 |
| 20260903073505 | 26 | 141 | 6.4 | 0.0 | 0.00 | 0.00 | 0.00 | 79 | 1011.3 |
| 20260903073005 | 26 | 52 | 6.4 | 0.0 | 0.00 | 0.00 | 0.00 | 79 | 1011.3 |
| 20260903072711 | 26 | 164 | 29.0 | 0.0 | 0.00 | 0.00 | 0.00 | 79 | 1011.6 |
| 20260903072005 | 26 | 119 | 14.5 | 0.0 | 0.00 | 0.00 | 0.00 | 79 | 1011.3 |
| 20260903071505 | 26 | 150 | 20.9 | 0.0 | 0.00 | 0.00 | 0.00 | 79 | 1011.3 |
| 20260903071005 | 26 | 9 | 14.5 | 0.0 | 0.00 | 0.00 | 0.00 | 79 | 1011.0 |
| 20260903070505 | 26 | 62 | 6.4 | 0.0 | 0.00 | 0.00 | 0.00 | 80 | 1011.0 |
| 20260903070005 | 26 | 100 | 6.4 | 0.0 | 0.00 | 0.00 | 0.00 | 80 | 1011.3 |
| 20260903065505 | 26 | 123 | 6.4 | 0.0 | 0.00 | 0.00 | 0.00 | 80 | 1011.6 |
| 20260903065004 | 26 | 77 | 14.5 | 0.0 | 0.00 | 0.00 | 0.00 | 79 | 1011.3 |
| 20260903064505 | 26 | 82 | 20.9 | 0.0 | 0.00 | 0.00 | 0.00 | 79 | 1011.6 |
| 20260903064005 | 26 | 100 | 14.5 | 0.0 | 0.00 | 0.00 | 0.00 | 79 | 1011.3 |
| 20260903063505 | 26 | 160 | 20.9 | 0.0 | 0.00 | 0.00 | 0.00 | 79 | 1011.6 |
| 20260903063005 | 26 | 29 | 20.9 | 0.0 | 0.00 | 0.00 | 0.00 | 79 | 1011.3 |
| 20260903062713 | 26 | 61 | 6.4 | 0.0 | 0.00 | 0.00 | 0.00 | 78 | 1011.3 |
| 20260903062005 | 26 | 106 | 29.0 | 0.0 | 0.00 | 0.00 | 0.00 | 78 | 1011.3 |
| 20260903061713 | 26 | 149 | 14.5 | 0.0 | 0.00 | 0.00 | 0.00 | 78 | 1011.3 |
| 20260903061005 | 26 | 187 | 14.5 | 0.0 | 0.00 | 0.00 | 0.00 | 78 | 1011.3 |
| 20260903060505 | 26 | 143 | 20.9 | 0.0 | 0.00 | 0.00 | 0.00 | 77 | 1011.3 |
| 20260903060005 | 26 | 182 | 14.5 | 0.0 | 0.00 | 0.00 | 0.00 | 77 | 1011.6 |
| 20260903055505 | 26 | 23 | 20.9 | 0.0 | 0.00 | 0.00 | 0.00 | 77 | 1011.3 |
| 20260903055004 | 26 | 61 | 14.5 | 0.0 | 0.00 | 0.00 | 0.00 | 77 | 1011.6 |
| 20260903054505 | 26 | 139 | 14.5 | 0.0 | 0.00 | 0.00 | 0.00 | 77 | 1011.6 |
| 20260903054212 | 26 | 133 | 29.0 | 0.0 | 0.00 | 0.00 | 0.00 | 77 | 1011.6 |
| 20260903053505 | 26 | 274 | 20.9 | 0.0 | 0.00 | 0.00 | 0.00 | 77 | 1011.6 |
| 20260903053005 | 26 | 89 | 14.5 | 0.0 | 0.00 | 0.00 | 0.00 | 77 | 1011.6 |
| 20260903052505 | 26 | 80 | 29.0 | 0.0 | 0.00 | 0.00 | 0.00 | 77 | 1011.6 |
| 20260903052005 | 26 | 83 | 14.5 | 0.0 | 0.00 | 0.00 | 0.00 | 77 | 1011.6 |
| 20260903051505 | 26 | 141 | 6.4 | 0.0 | 0.00 | 0.00 | 0.00 | 77 | 1012.0 |
| 20260903051005 | 27 | 44 | 6.4 | 0.0 | 0.00 | 0.00 | 0.00 | 77 | 1011.6 |
| 20260903050505 | 27 | 156 | 20.9 | 0.0 | 0.00 | 0.00 | 0.00 | 77 | 1011.6 |
| 20260903045526 | 27 | 39 | 14.5 | 0.0 | 0.00 | 0.00 | 0.00 | 77 | 1011.6 |
| 20260903045236 | 27 | 106 | 20.9 | 0.0 | 0.00 | 0.00 | 0.00 | 77 | 1011.6 |
| 20260903044739 | 27 | 103 | 20.9 | 0.0 | 0.00 | 0.00 | 0.00 | 77 | 1011.6 |
| 20260903044008 | 27 | 165 | 6.4 | 0.0 | 0.00 | 0.00 | 0.00 | 77 | 1011.6 |
| 20260903043507 | 27 | 320 | 20.9 | 0.0 | 0.00 | 0.00 | 0.00 | 77 | 1011.6 |
| 20260903043014 | 27 | 79 | 14.5 | 0.0 | 0.00 | 0.00 | 0.00 | 77 | 1012.0 |
| 20260903042517 | 27 | 70 | 14.5 | 0.0 | 0.00 | 0.00 | 0.00 | 77 | 1012.0 |
| 20260903042228 | 27 | 40 | 6.4 | 0.0 | 0.00 | 0.00 | 0.00 | 77 | 1011.6 |
| 20260903041731 | 27 | 7 | 6.4 | 0.0 | 0.00 | 0.00 | 0.00 | 78 | 1012.0 |
| 20260903041234 | 27 | 123 | 6.4 | 0.0 | 0.00 | 0.00 | 0.00 | 78 | 1012.0 |
| 20260903040527 | 27 | 74 | 14.5 | 0.0 | 0.00 | 0.00 | 0.00 | 78 | 1012.0 |
| 20260903040032 | 27 | 102 | 14.5 | 0.0 | 0.00 | 0.00 | 0.00 | 78 | 1012.0 |
| 20260903035714 | 27 | 143 | 6.4 | 0.0 | 0.00 | 0.00 | 0.00 | 78 | 1012.0 |
| 20260903035010 | 27 | 48 | 20.9 | 0.0 | 0.00 | 0.00 | 0.00 | 78 | 1012.0 |
| 20260903034720 | 27 | 127 | 14.5 | 0.0 | 0.00 | 0.00 | 0.00 | 77 | 1011.6 |
| 20260903034017 | 27 | 49 | 29.0 | 0.0 | 0.00 | 0.00 | 0.00 | 77 | 1011.6 |
| 20260903033519 | 27 | 91 | 20.9 | 0.0 | 0.00 | 0.00 | 0.00 | 76 | 1011.6 |
| 20260903033023 | 27 | 71 | 6.4 | 0.0 | 0.00 | 0.00 | 0.00 | 76 | 1011.6 |
| 20260903032526 | 27 | 66 | 14.5 | 0.0 | 0.00 | 0.00 | 0.00 | 76 | 1011.6 |
| 20260903032029 | 27 | 104 | 6.4 | 0.0 | 0.00 | 0.00 | 0.00 | 75 | 1011.6 |
| 20260903031532 | 27 | 115 | 14.5 | 0.0 | 0.00 | 0.00 | 0.00 | 75 | 1011.6 |
| 20260903031007 | 27 | 111 | 20.9 | 0.0 | 0.00 | 0.00 | 0.00 | 75 | 1011.6 |
| 20260903030718 | 27 | 72 | 6.4 | 0.0 | 0.00 | 0.00 | 0.00 | 75 | 1011.3 |
| 20260903030013 | 27 | 201 | 14.5 | 0.0 | 0.00 | 0.00 | 0.00 | 74 | 1011.3 |
| 20260903025724 | 27 | 31 | 6.4 | 0.0 | 0.00 | 0.00 | 0.00 | 74 | 1011.3 |
| 20260903025019 | 27 | 180 | 20.9 | 0.0 | 0.00 | 0.00 | 0.00 | 73 | 1011.0 |
| 20260903024522 | 27 | 80 | 29.0 | 0.0 | 0.00 | 0.00 | 0.00 | 73 | 1011.3 |
| 20260903024233 | 27 | 113 | 29.0 | 0.0 | 0.00 | 0.00 | 0.00 | 72 | 1010.6 |
| 20260903023528 | 27 | 129 | 20.9 | 0.0 | 0.00 | 0.00 | 0.00 | 72 | 1011.0 |
| 20260903023031 | 27 | 88 | 29.0 | 0.0 | 0.00 | 0.00 | 0.00 | 72 | 1010.6 |
| 20260903022507 | 28 | 347 | 20.9 | 0.0 | 0.00 | 0.00 | 0.00 | 72 | 1010.6 |
| 20260903022010 | 28 | 76 | 29.0 | 0.0 | 0.00 | 0.00 | 0.00 | 72 | 1010.6 |
| 20260903021513 | 28 | 86 | 14.5 | 0.0 | 0.00 | 0.00 | 0.00 | 71 | 1010.6 |
| 20260903021016 | 28 | 347 | 14.5 | 0.0 | 0.00 | 0.00 | 0.00 | 70 | 1010.3 |
| 20260903020520 | 28 | 13 | 20.9 | 0.0 | 0.00 | 0.00 | 0.00 | 70 | 1009.9 |
| 20260903020022 | 28 | 112 | 20.9 | 0.0 | 0.00 | 0.00 | 0.00 | 69 | 1009.9 |
| 20260903015525 | 28 | 75 | 20.9 | 0.0 | 0.00 | 0.00 | 0.00 | 68 | 1010.3 |
| 20260903015029 | 28 | 94 | 14.5 | 0.0 | 0.00 | 0.00 | 0.00 | 67 | 1009.9 |
| 20260903014531 | 28 | 86 | 29.0 | 0.0 | 0.00 | 0.00 | 0.00 | 66 | 1009.6 |
| 20260903014007 | 28 | 76 | 6.4 | 0.0 | 0.00 | 0.00 | 0.00 | 65 | 1009.6 |
| 20260903013510 | 28 | 80 | 37.0 | 0.0 | 0.00 | 0.00 | 0.00 | 64 | 1009.6 |
| 20260903013013 | 29 | 70 | 20.9 | 0.0 | 0.00 | 0.00 | 0.00 | 62 | 1009.6 |
| 20260903012516 | 29 | 64 | 6.4 | 0.0 | 0.00 | 0.00 | 0.00 | 61 | 1009.3 |
| 20260903012019 | 29 | 47 | 20.9 | 0.0 | 0.00 | 0.00 | 0.00 | 61 | 1009.6 |
| 20260903011523 | 29 | 145 | 20.9 | 0.0 | 0.00 | 0.00 | 0.00 | 60 | 1009.3 |
| 20260903011025 | 29 | 126 | 14.5 | 0.0 | 0.00 | 0.00 | 0.00 | 59 | 1009.6 |
| 20260903010528 | 30 | 49 | 20.9 | 0.0 | 0.00 | 0.00 | 0.00 | 58 | 1008.9 |
| 20260903010032 | 30 | 122 | 20.9 | 0.0 | 0.00 | 0.00 | 0.00 | 57 | 1008.9 |
| 20260903005507 | 30 | 235 | 20.9 | 0.0 | 0.00 | 0.00 | 0.00 | 56 | 1009.3 |
| 20260903005011 | 30 | 358 | 20.9 | 0.0 | 0.00 | 0.00 | 0.00 | 55 | 1008.9 |
| 20260903004513 | 30 | 170 | 20.9 | 0.0 | 0.00 | 0.00 | 0.00 | 53 | 1008.9 |
| 20260903004016 | 30 | 98 | 29.0 | 0.0 | 0.00 | 0.00 | 0.00 | 51 | 1008.6 |
| 20260903003519 | 30 | 132 | 37.0 | 0.0 | 0.00 | 0.00 | 0.00 | 49 | 1008.9 |
| 20260903003022 | 30 | 4 | 37.0 | 0.0 | 0.00 | 0.00 | 0.00 | 49 | 1008.9 |
| 20260903002525 | 31 | 85 | 20.9 | 0.0 | 0.00 | 0.00 | 0.00 | 49 | 1008.9 |
| 20260903002028 | 31 | 98 | 37.0 | 0.0 | 0.00 | 0.00 | 0.00 | 47 | 1008.9 |
| 20260903001531 | 31 | 117 | 20.9 | 0.0 | 0.00 | 0.00 | 0.00 | 45 | 1008.9 |
| 20260903001007 | 31 | 118 | 6.4 | 0.0 | 0.00 | 0.00 | 0.00 | 44 | 1008.6 |
| 20260903000510 | 31 | 84 | 6.4 | 0.0 | 0.00 | 0.00 | 0.00 | 44 | 1008.6 |
| 20260903000013 | 31 | 49 | 0.0 | 0.0 | 0.00 | 0.00 | 0.00 | 45 | 1008.9 |
| 20260902235516 | 31 | 108 | 6.4 | 0.0 | 0.00 | 0.00 | 0.00 | 46 | 1008.6 |
| 20260902235019 | 31 | 115 | 43.5 | 0.0 | 0.00 | 0.00 | 0.00 | 46 | 1008.6 |
| 20260902234522 | 31 | 150 | 6.4 | 0.0 | 0.00 | 0.00 | 0.00 | 46 | 1008.6 |
| 20260902234025 | 31 | 135 | 29.0 | 0.0 | 0.00 | 0.00 | 0.00 | 45 | 1008.6 |
| 20260902233528 | 31 | 49 | 29.0 | 0.0 | 0.00 | 0.00 | 0.00 | 45 | 1008.6 |
| 20260902233031 | 31 | 142 | 20.9 | 0.0 | 0.00 | 0.00 | 0.00 | 45 | 1008.6 |
| 20260902232507 | 32 | 102 | 29.0 | 0.0 | 0.00 | 0.00 | 0.00 | 44 | 1008.6 |
| 20260902232010 | 32 | 29 | 14.5 | 0.0 | 0.00 | 0.00 | 0.00 | 44 | 1008.6 |
| 20260902231720 | 32 | 96 | 43.5 | 0.0 | 0.00 | 0.00 | 0.00 | 43 | 1008.6 |
| 20260902231016 | 32 | 62 | 37.0 | 0.0 | 0.00 | 0.00 | 0.00 | 44 | 1008.6 |
| 20260902230519 | 33 | 64 | 14.5 | 0.0 | 0.00 | 0.00 | 0.00 | 42 | 1008.6 |
| 20260902230022 | 32 | 185 | 20.9 | 0.0 | 0.00 | 0.00 | 0.00 | 42 | 1008.6 |
| 20260902225733 | 33 | 86 | 20.9 | 0.0 | 0.00 | 0.00 | 0.00 | 41 | 1008.6 |
| 20260902225236 | 33 | 79 | 37.0 | 0.0 | 0.00 | 0.00 | 0.00 | 39 | 1008.6 |
| 20260902224531 | 33 | 58 | 29.0 | 0.0 | 0.00 | 0.00 | 0.00 | 36 | 1008.6 |
| 20260902224007 | 33 | 84 | 14.5 | 0.0 | 0.00 | 0.00 | 0.00 | 34 | 1008.6 |
| 20260902223510 | 33 | 80 | 20.9 | 0.0 | 0.00 | 0.00 | 0.00 | 34 | 1008.2 |
| 20260902223013 | 33 | 206 | 14.5 | 0.0 | 0.00 | 0.00 | 0.00 | 33 | 1008.6 |
| 20260902222516 | 33 | 73 | 37.0 | 0.0 | 0.00 | 0.00 | 0.00 | 33 | 1008.6 |
| 20260902222019 | 33 | 57 | 14.5 | 0.0 | 0.00 | 0.00 | 0.00 | 33 | 1008.6 |
| 20260902221522 | 34 | 67 | 14.5 | 0.0 | 0.00 | 0.00 | 0.00 | 33 | 1008.6 |
| 20260902221025 | 33 | 108 | 20.9 | 0.0 | 0.00 | 0.00 | 0.00 | 33 | 1008.6 |
| 20260902220528 | 34 | 153 | 20.9 | 0.0 | 0.00 | 0.00 | 0.00 | 33 | 1008.6 |
| 20260902220031 | 33 | 104 | 20.9 | 0.0 | 0.00 | 0.00 | 0.00 | 34 | 1008.2 |
| 20260902215507 | 34 | 78 | 20.9 | 0.0 | 0.00 | 0.00 | 0.00 | 34 | 1008.6 |
| 20260902215010 | 34 | 55 | 14.5 | 0.0 | 0.00 | 0.00 | 0.00 | 34 | 1008.6 |
| 20260902214720 | 34 | 92 | 37.0 | 0.0 | 0.00 | 0.00 | 0.00 | 33 | 1008.6 |
| 20260902214016 | 34 | 167 | 20.9 | 0.0 | 0.00 | 0.00 | 0.00 | 33 | 1008.2 |
| 20260902213726 | 34 | 84 | 20.9 | 0.0 | 0.00 | 0.00 | 0.00 | 32 | 1008.6 |
| 20260902213022 | 34 | 111 | 14.5 | 0.0 | 0.00 | 0.00 | 0.00 | 32 | 1008.6 |
| 20260902212525 | 34 | 18 | 29.0 | 0.0 | 0.00 | 0.00 | 0.00 | 33 | 1008.6 |
| 20260902212028 | 35 | 154 | 14.5 | 0.0 | 0.00 | 0.00 | 0.00 | 34 | 1008.6 |
| 20260902211531 | 35 | 117 | 29.0 | 0.0 | 0.00 | 0.00 | 0.00 | 34 | 1008.9 |
| 20260902211007 | 34 | 55 | 37.0 | 0.0 | 0.00 | 0.00 | 0.00 | 35 | 1008.9 |
| 20260902210510 | 35 | 146 | 14.5 | 0.0 | 0.00 | 0.00 | 0.00 | 35 | 1008.9 |
| 20260902210013 | 35 | 1 | 20.9 | 0.0 | 0.00 | 0.00 | 0.00 | 35 | 1008.9 |
| 20260902205724 | 35 | 191 | 29.0 | 0.0 | 0.00 | 0.00 | 0.00 | 34 | 1008.9 |
| 20260902205019 | 34 | 108 | 6.4 | 0.0 | 0.00 | 0.00 | 0.00 | 35 | 1008.9 |
| 20260902204522 | 35 | 61 | 20.9 | 0.0 | 0.00 | 0.00 | 0.00 | 35 | 1009.3 |
| 20260902204025 | 35 | 90 | 6.4 | 0.0 | 0.00 | 0.00 | 0.00 | 37 | 1009.3 |
| 20260902203510 | 34 | 139 | 14.5 | 0.0 | 0.00 | 0.00 | 0.00 | 37 | 1009.3 |
| 20260902203031 | 35 | 354 | 29.0 | 0.0 | 0.00 | 0.00 | 0.00 | 35 | 1009.3 |
| 20260902202507 | 35 | 323 | 14.5 | 0.0 | 0.00 | 0.00 | 0.00 | 36 | 1009.3 |
| 20260902202218 | 35 | 154 | 20.9 | 0.0 | 0.00 | 0.00 | 0.00 | 37 | 1009.6 |
| 20260902201513 | 35 | 171 | 20.9 | 0.0 | 0.00 | 0.00 | 0.00 | 36 | 1009.6 |
| 20260902201016 | 35 | 142 | 14.5 | 0.0 | 0.00 | 0.00 | 0.00 | 37 | 1009.6 |
| 20260902200727 | 35 | 136 | 6.4 | 0.0 | 0.00 | 0.00 | 0.00 | 36 | 1009.6 |
| 20260902200022 | 35 | 177 | 14.5 | 0.0 | 0.00 | 0.00 | 0.00 | 37 | 1009.9 |
| 20260902195525 | 35 | 230 | 6.4 | 0.0 | 0.00 | 0.00 | 0.00 | 38 | 1009.9 |
| 20260902195236 | 35 | 154 | 20.9 | 0.0 | 0.00 | 0.00 | 0.00 | 36 | 1009.9 |
| 20260902194531 | 34 | 41 | 29.0 | 0.0 | 0.00 | 0.00 | 0.00 | 36 | 1009.9 |
| 20260902194214 | 34 | 23 | 20.9 | 0.0 | 0.00 | 0.00 | 0.00 | 38 | 1010.3 |
| 20260902193510 | 33 | 163 | 29.0 | 0.0 | 0.00 | 0.00 | 0.00 | 38 | 1010.3 |
| 20260902193013 | 34 | 110 | 14.5 | 0.0 | 0.00 | 0.00 | 0.00 | 37 | 1010.3 |
| 20260902192723 | 35 | 137 | 6.4 | 0.0 | 0.00 | 0.00 | 0.00 | 36 | 1010.3 |
| 20260902192019 | 35 | 160 | 14.5 | 0.0 | 0.00 | 0.00 | 0.00 | 37 | 1010.3 |
| 20260902191522 | 34 | 111 | 6.4 | 0.0 | 0.00 | 0.00 | 0.00 | 37 | 1010.3 |
| 20260902191025 | 34 | 53 | 20.9 | 0.0 | 0.00 | 0.00 | 0.00 | 38 | 1010.6 |
| 20260902190735 | 34 | 201 | 6.4 | 0.0 | 0.00 | 0.00 | 0.00 | 38 | 1011.0 |
| 20260902190031 | 33 | 139 | 6.4 | 0.0 | 0.00 | 0.00 | 0.00 | 40 | 1011.0 |
| 20260902185507 | 33 | 92 | 29.0 | 0.0 | 0.00 | 0.00 | 0.00 | 39 | 1011.0 |
| 20260902185010 | 34 | 126 | 6.4 | 0.0 | 0.00 | 0.00 | 0.00 | 40 | 1011.0 |
| 20260902184513 | 33 | 100 | 14.5 | 0.0 | 0.00 | 0.00 | 0.00 | 42 | 1011.3 |
| 20260902184016 | 33 | 68 | 14.5 | 0.0 | 0.00 | 0.00 | 0.00 | 41 | 1011.3 |
| 20260902183519 | 33 | 146 | 37.0 | 0.0 | 0.00 | 0.00 | 0.00 | 41 | 1011.3 |
| 20260902183022 | 33 | 150 | 14.5 | 0.0 | 0.00 | 0.00 | 0.00 | 43 | 1011.3 |
| 20260902182733 | 33 | 88 | 20.9 | 0.0 | 0.00 | 0.00 | 0.00 | 40 | 1011.3 |
| 20260902182028 | 33 | 20 | 14.5 | 0.0 | 0.00 | 0.00 | 0.00 | 42 | 1011.3 |
| 20260902181531 | 33 | 37 | 14.5 | 0.0 | 0.00 | 0.00 | 0.00 | 43 | 1011.6 |
| 20260902181215 | 33 | 158 | 6.4 | 0.0 | 0.00 | 0.00 | 0.00 | 42 | 1011.6 |
| 20260902180507 | 33 | 131 | 29.0 | 0.0 | 0.00 | 0.00 | 0.00 | 41 | 1011.6 |
| 20260902180013 | 33 | 150 | 6.4 | 0.0 | 0.00 | 0.00 | 0.00 | 44 | 1012.0 |
| 20260902175505 | 32 | 156 | 20.9 | 0.0 | 0.00 | 0.00 | 0.00 | 42 | 1012.0 |
| 20260902175005 | 33 | 33 | 20.9 | 0.0 | 0.00 | 0.00 | 0.00 | 43 | 1012.0 |
| 20260902174505 | 33 | 99 | 20.9 | 0.0 | 0.00 | 0.00 | 0.00 | 44 | 1012.3 |
| 20260902174005 | 32 | 154 | 37.0 | 0.0 | 0.00 | 0.00 | 0.00 | 45 | 1012.3 |
| 20260902173712 | 32 | 53 | 14.5 | 0.0 | 0.00 | 0.00 | 0.00 | 44 | 1012.3 |
| 20260902173005 | 32 | 79 | 20.9 | 0.0 | 0.00 | 0.00 | 0.00 | 45 | 1012.3 |
| 20260902172505 | 32 | 164 | 43.5 | 0.0 | 0.00 | 0.00 | 0.00 | 45 | 1012.3 |
| 20260902172005 | 32 | 163 | 6.4 | 0.0 | 0.00 | 0.00 | 0.00 | 47 | 1012.3 |
| 20260902171505 | 32 | 94 | 29.0 | 0.0 | 0.00 | 0.00 | 0.00 | 47 | 1012.3 |
| 20260902171005 | 32 | 238 | 6.4 | 0.0 | 0.00 | 0.00 | 0.00 | 48 | 1012.3 |
| 20260902170712 | 31 | 105 | 37.0 | 0.0 | 0.00 | 0.00 | 0.00 | 49 | 1012.7 |